CAPE
0 0 0 0 0 0 0 0 0 0 0 0 0 0 0 17 39 11 2 7 75 154 587 1673 2235 2594 2628 2458 2316 2123 1963 1908 1914 1748 1576 1430 1222 636 330 372 154 6 0 0 0 0 0 0 0
0 0 0 0 0 0 0 0 0 0 0 0 0 0 12 61 109 155 92 63 23 265 463 820 2221 2450 2571 2446 2249 2040 2020 1994 1945 1799 1657 1473 1301 882 215 62 0 0 0 0 0 0 0 0 0
0 0 0 0 0 0 0 0 0 0 0 0 0 0 9 47 286 169 157 20 130 238 292 513 2149 2340 2477 2438 2210 2073 2065 2036 2003 1904 1756 1566 1341 1078 613 253 79 0 0 0 0 0 0 0 0
0 0 0 0 0 0 0 0 0 0 0 0 0 13 34 47 140 334 113 30 56 199 173 891 1911 2213 2334 2407 2248 2144 2132 2136 2066 1998 1841 1647 1344 1000 595 356 212 45 0 0 0 0 15 12 16
0 0 0 0 0 0 0 0 0 0 0 0 0 0 82 85 484 238 92 55 53 160 147 922 1774 2081 2230 2358 2267 2169 2158 2038 2026 2003 1866 1592 1345 911 562 354 131 70 49 5 1 98 168 174 119
0 0 0 0 0 0 0 0 0 0 0 0 0 11 12 197 486 245 55 14 15 59 218 577 1507 1834 1999 2139 2134 2073 2034 2000 1974 1916 1827 1667 1332 976 679 472 272 231 228 160 177 300 295 313 428
0 0 0 0 0 0 0 0 0 0 0 0 0 16 12 3 388 477 68 1 0 96 331 405 723 1273 1815 1845 1860 1867 1808 1803 1797 1717 1654 1574 1312 1004 717 514 421 334 367 346 382 480 426 467 515
0 0 0 0 0 0 0 0 0 0 0 0 0 3 46 0 202 199 206 14 16 342 206 466 542 699 784 1073 1680 1640 1621 1625 1569 1569 1547 1452 1285 1041 781 401 386 362 441 486 550 627 568 630 738
0 0 0 0 0 0 0 0 0 0 0 0 0 2 18 22 108 140 225 208 479 403 356 331 602 614 569 523 840 1240 1396 1408 1330 1354 1361 998 607 509 309 284 245 355 428 513 572 694 715 761 866
0 0 0 0 0 0 0 0 0 0 0 0 0 6 75 14 57 20 198 295 589 518 446 254 283 424 501 594 524 501 477 503 458 404 436 353 142 103 100 175 326 372 469 566 633 769 912 749 490
0 0 0 0 0 0 0 0 0 0 0 0 0 0 37 60 62 68 18 114 532 901 771 362 183 142 257 279 440 466 378 339 253 158 120 128 26 32 115 12 152 75 266 139 365 486 642 492 440
0 0 0 0 0 0 0 0 0 0 0 0 0 0 1 94 8 39 3 44 100 793 1281 994 612 227 34 10 193 254 254 233 162 128 14 20 0 0 0 0 0 0 4 50 69 157 423 416 341
0 0 0 0 0 0 0 0 0 0 0 0 0 0 0 40 107 10 22 48 153 1245 1814 1564 1132 580 257 0 82 138 74 51 44 16 21 5 0 0 0 0 0 0 0 25 20 39 213 326 291
0 0 0 0 0 0 0 0 0 0 0 0 0 0 0 0 23 11 19 68 62 42 402 806 468 233 324 39 36 90 143 71 0 0 0 0 0 0 0 0 0 0 0 3 11 0 44 121 152
0 0 0 0 0 0 0 0 0 0 0 0 0 0 0 0 0 3 5 1 3 16 22 350 16 7 13 209 123 231 246 160 56 3 0 0 0 0 0 0 0 0 0 0 2 0 0 37 130
0 0 0 0 0 0 0 0 0 0 0 0 0 0 0 0 0 0 0 0 0 0 0 27 351 424 566 428 536 533 408 318 240 106 19 1 0 0 0 0 0 0 0 0 0 0 0 42 146
0 0 0 0 0 0 0 0 0 0 0 0 0 0 0 0 0 0 0 0 0 0 0 35 491 827 938 989 1100 1113 1001 582 541 385 200 88 27 0 1 0 0 0 0 0 0 0 0 75 195
0 0 0 0 0 0 0 0 0 0 0 0 0 0 0 0 0 0 0 0 0 0 0 3 638 1173 1244 1403 1286 1355 1067 1208 844 709 641 315 203 127 16 23 8 0 0 0 0 11 0 2 147
0 0 0 0 0 0 0 0 0 0 0 0 0 0 0 0 0 0 0 0 0 0 0 0 0 1074 1424 1675 1612 1612 1552 1206 874 605 698 576 676 351 101 62 30 20 0 0 12 2 77 42 120
0 0 0 0 0 0 0 0 0 0 0 0 0 0 0 0 0 0 0 0 0 0 0 10 2 127 1280 1401 1531 1320 1314 471 1090 923 663 423 626 915 495 137 105 58 72 6 21 45 16 192 110
0 0 0 0 0 0 0 0 0 0 0 0 0 0 0 0 0 0 0 0 0 0 0 27 27 87 1002 927 190 23 14 21 95 62 10 142 248 1023 788 372 187 257 242 108 27 128 160 138 119
0 0 0 0 0 0 0 0 0 0 0 0 0 0 0 0 0 0 0 0 0 0 0 54 67 36 39 0 38 132 62 15 4 1 8 75 220 946 955 599 408 437 369 254 146 91 143 209 320
0 0 0 0 0 0 0 0 0 0 0 0 0 0 0 0 0 0 0 0 0 0 0 1 21 10 0 0 0 0 0 0 0 0 0 1 628 954 1106 796 552 452 392 292 293 315 187 146 223
0 0 0 0 0 0 0 0 0 0 0 0 0 0 0 0 0 0 0 0 0 0 0 0 0 0 0 0 0 0 0 0 0 2 87 272 605 693 1045 869 687 574 678 506 413 418 381 167 253
0 0 0 0 0 0 0 0 0 0 0 0 0 0 0 0 0 0 0 0 0 0 0 0 0 0 0 0 0 0 0 0 0 12 368 601 546 528 737 830 796 764 906 788 548 525 349 246 264
0 0 3 2 0 0 0 0 0 0 0 0 0 0 0 0 0 0 0 0 0 0 0 0 0 0 0 0 0 0 0 0 0 150 844 828 822 592 541 677 683 799 692 718 550 489 382 271 181
0 0 3 12 4 38 0 0 0 0 0 0 0 0 0 0 0 0 0 0 0 0 0 0 0 0 0 0 0 1 1 0 169 657 743 541 431 465 330 460 565 684 855 808 586 467 500 302 49
0 0 0 0 2 13 0 0 0 0 0 0 0 0 0 0 0 0 0 0 0 0 0 0 0 0 0 5 48 311 186 103 555 663 654 612 553 642 382 442 613 823 836 689 553 396 374 266 20
0 0 0 0 0 0 0 0 1 0 0 0 0 0 0 0 0 0 0 0 0 0 0 0 0 0 97 301 482 720 856 829 698 717 621 579 480 475 490 521 666 721 650 413 406 327 214 179 11
0 0 0 0 0 10 0 0 0 0 0 0 0 0 0 0 0 0 0 0 0 0 325 183 156 276 419 667 1053 1180 1332 876 687 601 632 568 451 473 677 774 798 754 545 278 249 151 95 55 14
CIN
-0 -0 -0 -0 -0 -0 -0 -0 -0 -0 -0 -0 -0 -0 -0 -158 -115 -84 -72 -788 -949 -884 -718 -444 -359 -311 -294 -273 -244 -231 -202 -172 -136 -146 -155 -149 -145 -202 -231 -211 -237 -60 -0 -0 -0 -0 -0 -0 -0
-0 -0 -0 -0 -0 -0 -0 -0 -0 -0 -0 -0 -0 -0 -87 -118 -310 -552 -502 -806 -913 -904 -784 -631 -360 -337 -306 -293 -266 -262 -219 -195 -162 -160 -162 -170 -168 -208 -295 -342 -0 -0 -0 -0 -0 -0 -0 -0 -0
-0 -0 -0 -0 -0 -0 -0 -0 -0 -0 -0 -0 -0 -0 -134 -142 -421 -524 -706 -927 -993 -924 -895 -752 -365 -378 -336 -314 -295 -272 -235 -198 -188 -176 -168 -181 -187 -216 -277 -318 -301 -0 -0 -0 -0 -0 -0 -0 -0
-0 -0 -0 -0 -0 -0 -0 -0 -0 -0 -0 -0 -0 -22 -190 -330 -335 -581 -938 -1023 -1033 -945 -942 -684 -412 -405 -380 -349 -331 -292 -245 -218 -208 -192 -185 -194 -217 -250 -307 -338 -346 -394 -0 -0 -0 -0 -457 -465 -445
-0 -0 -0 -0 -0 -0 -0 -0 -0 -0 -0 -0 -0 -0 -140 -254 -581 -796 -948 -963 -1010 -988 -941 -673 -449 -424 -413 -364 -358 -316 -269 -248 -229 -210 -208 -224 -238 -291 -330 -358 -420 -417 -429 -110 -66 -390 -338 -319 -352
-0 -0 -0 -0 -0 -0 -0 -0 -0 -0 -0 -0 -0 -55 -188 -379 -507 -722 -872 -978 -987 -985 -907 -738 -480 -438 -433 -385 -377 -354 -315 -274 -247 -237 -239 -246 -282 -310 -341 -367 -400 -398 -368 -372 -371 -325 -308 -278 -239
-0 -0 -0 -0 -0 -0 -0 -0 -0 -0 -0 -0 -0 -63 -250 -103 -395 -521 -730 -60 -0 -925 -853 -774 -638 -551 -446 -416 -414 -388 -360 -322 -291 -281 -287 -282 -312 -330 -358 -393 -388 -381 -345 -332 -319 -284 -278 -253 -229
-0 -0 -0 -0 -0 -0 -0 -0 -0 -0 -0 -0 -0 -34 -136 -7 -375 -471 -570 -814 -194 -804 -863 -787 -734 -701 -679 -565 -434 -429 -408 -383 -360 -327 -316 -315 -325 -352 -369 -444 -424 -405 -353 -314 -289 -254 -257 -222 -180
-0 -0 -0 -0 -0 -0 -0 -0 -0 -0 -0 -0 -0 -43 -246 -209 -210 -343 -407 -508 -607 -639 -734 -790 -702 -729 -764 -762 -632 -502 -432 -407 -407 -381 -354 -397 -481 -485 -512 -525 -511 -414 -357 -300 -279 -237 -226 -195 -155
-0 -0 -0 -0 -0 -0 -0 -0 -0 -0 -0 -0 -0 -58 -205 -197 -252 -299 -343 -367 -489 -523 -656 -760 -767 -766 -794 -713 -740 -718 -676 -634 -628 -635 -593 -596 -703 -704 -657 -595 -480 -422 -357 -293 -261 -218 -175 -198 -270
-0 -0 -0 -0 -0 -0 -0 -0 -0 -0 -0 -0 -0 -0 -161 -160 -156 -227 -342 -295 -394 -409 -523 -658 -759 -820 -868 -781 -799 -755 -762 -749 -747 -797 -802 -776 -508 -609 -663 -799 -595 -641 -457 -499 -349 -297 -254 -293 -308
-0 -0 -0 -0 -0 -0 -0 -0 -0 -0 -0 -0 -0 -0 -125 -109 -263 -146 -460 -488 -709 -481 -375 -496 -575 -716 -883 -802 -935 -897 -871 -851 -882 -875 -969 -935 -0 -0 -0 -0 -0 -0 -639 -628 -550 -482 -350 -344 -369
-0 -0 -0 -0 -0 -0 -0 -0 -0 -0 -0 -0 -0 -0 -0 -177 -171 -198 -585 -558 -490 -332 -331 -439 -434 -513 -537 -33 -850 -931 -957 -1020 -1052 -913 -1021 -1049 -0 -0 -0 -0 -0 -0 -0 -677 -689 -643 -459 -397 -408
-0 -0 -0 -0 -0 -0 -0 -0 -0 -0 -0 -0 -0 -0 -0 -0 -255 -438 -445 -387 -412 -380 -397 -395 -477 -733 -512 -573 -689 -804 -875 -960 -0 -0 -0 -0 -0 -0 -0 -0 -0 -0 -0 -237 -721 -0 -624 -539 -516
-0 -0 -0 -0 -0 -0 -0 -0 -0 -0 -0 -0 -0 -0 -0 -0 -0 -179 -423 -40 -118 -387 -364 -362 -384 -454 -351 -467 -620 -741 -744 -804 -930 -911 -0 -0 -0 -0 -0 -0 -0 -0 -0 -0 -328 -0 -7 -614 -527
-0 -0 -0 -0 -0 -0 -0 -0 -0 -0 -0 -0 -0 -0 -0 -0 -0 -0 -0 -0 -0 -0 -0 -422 -285 -352 -411 -401 -484 -571 -655 -684 -743 -833 -963 -184 -0 -0 -0 -0 -0 -0 -0 -0 -0 -0 -0 -586 -497
-0 -0 -0 -0 -0 -0 -0 -0 -0 -0 -0 -0 -0 -0 -0 -0 -0 -0 -0 -0 -0 -0 -0 -308 -255 -298 -380 -373 -391 -450 -532 -582 -642 -696 -779 -837 -880 -0 -455 -0 -0 -0 -0 -0 -0 -0 -0 -539 -445
-0 -0 -0 -0 -0 -0 -0 -0 -0 -0 -0 -0 -0 -0 -0 -0 -0 -0 -0 -0 -0 -0 -0 -105 -285 -281 -332 -363 -406 -445 -550 -504 -606 -601 -584 -685 -732 -779 -946 -844 -879 -0 -0 -0 -0 -548 -0 -231 -422
-0 -0 -0 -0 -0 -0 -0 -0 -0 -0 -0 -0 -0 -0 -0 -0 -0 -0 -0 -0 -0 -0 -0 -0 -0 -475 -431 -468 -427 -388 -324 -406 -519 -575 -499 -548 -487 -577 -708 -671 -772 -755 -0 -0 -545 -73 -478 -506 -416
-0 -0 -0 -0 -0 -0 -0 -0 -0 -0 -0 -0 -0 -0 -0 -0 -0 -0 -0 -0 -0 -0 -0 -479 -115 -464 -439 -329 -336 -398 -410 -632 -376 -423 -538 -541 -459 -388 -460 -551 -620 -592 -488 -376 -310 -484 -524 -374 -422
-0 -0 -0 -0 -0 -0 -0 -0 -0 -0 -0 -0 -0 -0 -0 -0 -0 -0 -0 -0 -0 -0 -0 -486 -563 -533 -374 -433 -707 -906 -907 -443 -706 -683 -745 -616 -618 -424 -403 -496 -496 -430 -387 -449 -259 -440 -370 -378 -386
-0 -0 -0 -0 -0 -0 -0 -0 -0 -0 -0 -0 -0 -0 -0 -0 -0 -0 -0 -0 -0 -0 -0 -524 -558 -554 -619 -0 -624 -492 -480 -437 -104 -117 -129 -465 -569 -415 -375 -460 -434 -369 -366 -430 -442 -479 -388 -309 -237
-0 -0 -0 -0 -0 -0 -0 -0 -0 -0 -0 -0 -0 -0 -0 -0 -0 -0 -0 -0 -0 -0 -0 -566 -592 -619 -0 -0 -0 -0 -0 -0 -0 -0 -0 -36 -451 -360 -366 -410 -380 -377 -388 -396 -348 -334 -354 -352 -281
-0 -0 -0 -0 -0 -0 -0 -0 -0 -0 -0 -0 -0 -0 -0 -0 -0 -0 -0 -0 -0 -0 -0 -0 -0 -0 -0 -0 -0 -0 -0 -0 -0 -186 -425 -469 -412 -404 -361 -362 -339 -329 -277 -293 -299 -290 -278 -331 -248
-0 -0 -0 -0 -0 -0 -0 -0 -0 -0 -0 -0 -0 -0 -0 -0 -0 -0 -0 -0 -0 -0 -0 -0 -0 -0 -0 -0 -0 -0 -0 -0 -0 -359 -375 -364 -388 -408 -368 -313 -282 -255 -198 -203 -251 -257 -290 -287 -239
-0 -0 -25 -11 -0 -0 -38 -0 -0 -0 -0 -0 -0 -0 -0 -0 -0 -0 -0 -0 -0 -0 -0 -0 -0 -0 -0 -0 -0 -0 -0 -0 -0 -484 -347 -304 -307 -380 -356 -296 -261 -194 -205 -196 -246 -256 -265 -252 -238
-0 -0 -75 -36 -59 -0 -0 -0 -0 -0 -0 -0 -0 -0 -0 -0 -0 -0 -0 -0 -0 -0 -0 -0 -0 -0 -0 -0 -0 -58 -98 -12 -492 -404 -370 -395 -399 -350 -356 -292 -235 -188 -140 -150 -219 -233 -182 -217 -322
-0 -0 -0 -0 -14 -14 -0 -0 -0 -0 -0 -0 -0 -0 -0 -0 -0 -0 -0 -0 -0 -0 -0 -0 -0 -0 -0 -328 -409 -553 -582 -556 -420 -402 -370 -335 -335 -269 -297 -227 -181 -117 -110 -168 -197 -222 -199 -202 -238
-0 -0 -0 -0 -0 -0 -0 -0 -53 -46 -0 -0 -0 -0 -0 -0 -0 -0 -0 -0 -0 -0 -0 -0 -0 -0 -638 -507 -458 -359 -321 -336 -357 -323 -344 -334 -340 -300 -231 -178 -142 -139 -139 -225 -196 -186 -220 -182 -206
-0 -0 -0 -0 -0 -57 -0 -0 -7 -0 -0 -0 -0 -0 -0 -0 -0 -0 -0 -0 -0 -0 -440 -581 -537 -438 -407 -395 -294 -264 -217 -286 -314 -321 -302 -296 -287 -224 -125 -97 -102 -98 -152 -208 -179 -209 -227 -204 -207
Wind_Speed
6 5 1 4 4 5 5 8 5 10 10 4 9 7 10 6 8 7 7 12 20 18 14 15 18 21 22 22 21 20 18 16 15 16 16 16 15 15 14 12 11 10 11 10 10 9 9 8 8
3 3 3 2 4 0 7 6 20 4 10 12 17 7 4 3 4 10 15 16 24 20 13 13 18 21 22 22 21 19 18 18 17 16 16 16 15 15 14 13 11 10 10 9 9 9 9 8 7
2 2 3 4 4 7 7 5 5 6 13 13 10 7 8 7 2 16 7 18 25 19 15 13 19 22 22 22 20 19 18 17 17 17 16 16 15 15 14 13 12 12 10 10 9 9 9 9 8
1 4 4 3 11 8 10 9 9 14 17 14 6 6 1 8 18 11 21 19 24 18 15 17 19 21 23 23 22 20 19 18 17 17 17 17 16 14 13 13 12 12 12 11 11 10 9 8 7
1 2 0 3 10 8 10 7 8 14 9 17 13 5 7 2 11 21 21 21 23 17 14 16 20 21 22 22 23 22 20 19 18 18 18 17 15 15 14 13 13 13 12 13 12 10 9 8 7
1 2 2 7 14 9 7 10 6 10 12 17 9 3 2 4 12 18 19 17 19 20 14 13 17 18 20 20 21 22 20 19 18 18 18 17 17 16 15 14 14 13 13 13 12 11 9 8 8
5 2 6 5 12 14 13 5 5 5 7 12 6 5 2 7 7 5 12 13 16 16 15 11 11 14 18 18 18 19 19 18 18 17 17 17 17 16 16 15 15 14 13 13 12 11 10 10 9
4 4 4 6 11 14 8 4 4 4 16 8 6 5 6 6 12 9 8 10 9 8 11 12 10 11 11 11 17 18 19 19 18 17 17 17 17 17 16 15 14 14 14 14 13 12 12 11 10
1 2 8 9 11 14 12 7 9 10 7 10 13 3 3 7 20 15 10 8 8 8 8 9 10 10 11 10 12 15 17 16 16 15 16 13 8 9 11 12 14 14 14 13 13 12 12 11 11
5 5 8 6 8 14 18 18 18 13 16 7 18 14 16 13 16 15 13 11 13 11 8 8 10 11 10 9 9 8 8 8 8 9 9 7 6 6 8 10 14 15 14 14 14 12 12 11 4
5 14 10 8 7 9 16 23 15 12 15 11 8 17 7 1 11 17 8 15 13 10 10 10 6 7 11 9 6 5 5 5 6 8 8 6 5 5 5 3 5 5 12 5 9 7 5 6 4
6 7 8 9 14 15 21 21 24 17 19 16 5 9 6 5 11 14 11 12 12 13 14 13 8 3 7 5 7 8 7 7 6 8 8 6 4 5 5 5 6 5 5 6 5 4 6 6 6
6 9 8 10 12 17 17 24 25 24 19 16 13 7 7 11 12 3 6 7 11 12 10 13 12 9 3 10 7 6 8 8 8 7 9 8 7 7 7 7 6 6 5 7 6 6 7 7 7
5 6 8 7 9 6 13 21 19 31 16 17 20 4 5 5 10 7 8 7 8 8 14 15 16 14 8 11 12 9 8 8 7 8 9 12 9 8 8 7 7 6 7 7 8 8 8 8 7
7 8 10 6 4 5 5 15 21 20 11 15 21 14 6 8 6 15 17 17 14 9 9 9 11 15 22 19 13 8 8 8 8 8 9 13 11 9 9 8 8 7 7 9 7 6 6 5 6
6 4 4 4 7 6 8 25 21 14 9 16 13 21 8 9 9 9 10 8 9 17 14 15 15 17 22 22 15 10 10 9 8 8 7 12 12 10 10 8 8 7 7 8 8 7 7 7 6
4 5 7 7 7 6 6 16 10 7 10 17 16 15 18 8 8 11 7 13 11 11 18 19 20 24 27 21 13 12 12 10 8 7 8 11 12 12 10 9 8 8 8 8 8 7 7 6 6
6 5 6 4 6 2 10 15 7 7 8 10 14 15 17 16 12 11 11 8 13 13 12 9 19 20 18 11 6 4 4 7 6 8 9 11 10 12 11 9 9 9 8 8 6 9 7 4 7
9 12 14 10 7 2 9 14 12 6 7 9 10 13 15 17 22 9 10 10 9 7 11 12 8 10 8 4 6 6 11 8 4 6 10 10 9 11 11 9 9 10 11 10 10 6 6 6 5
6 6 6 4 6 8 7 17 15 6 7 9 11 12 13 13 16 20 11 10 9 11 10 8 13 14 12 11 9 5 8 4 7 7 7 10 12 11 11 11 10 12 9 7 9 10 3 4 5
8 6 12 15 12 4 5 15 17 10 5 7 10 10 10 12 14 18 18 12 10 11 11 10 15 16 15 13 5 3 4 2 3 4 4 7 8 11 13 13 10 10 10 9 9 9 9 5 4
5 9 11 13 8 4 3 17 15 11 12 6 11 10 10 13 14 13 15 12 10 11 10 12 12 14 12 9 8 8 9 7 5 5 3 5 7 9 13 12 11 11 8 7 7 7 6 5 5
6 7 7 7 10 4 12 6 14 6 13 18 14 11 11 10 9 12 15 14 12 8 10 11 12 10 10 11 12 10 6 5 3 2 5 6 4 9 11 11 11 8 5 6 7 6 6 4 4
4 4 9 5 3 10 12 7 16 8 8 13 11 10 14 12 13 10 13 13 11 8 8 9 11 14 12 10 10 11 11 9 5 4 5 4 3 4 8 9 9 7 6 6 5 6 7 6 4
4 5 6 5 1 11 7 9 19 5 10 6 5 10 13 15 15 17 15 10 13 11 9 10 12 15 14 14 12 13 13 11 11 8 6 6 4 3 7 8 8 6 6 6 6 6 5 6 4
5 6 5 5 3 8 9 8 9 1 4 4 4 7 8 14 13 16 19 17 14 16 14 13 12 14 12 12 13 12 11 8 7 7 5 5 6 6 7 7 6 6 6 6 6 4 4 6 4
4 5 9 7 11 7 5 8 9 4 4 7 10 10 12 10 14 16 19 17 18 19 17 14 14 12 12 14 12 10 9 8 8 8 6 5 6 5 6 7 8 7 7 6 7 5 5 5 5
9 4 2 1 4 5 6 7 8 7 9 13 14 14 16 13 12 15 15 18 19 21 15 11 10 13 13 13 11 10 10 8 7 8 9 9 7 8 8 6 7 7 6 7 7 5 5 6 4
5 3 2 4 6 4 5 7 5 6 9 10 14 15 14 15 11 12 15 16 17 18 17 9 6 7 8 8 7 8 7 8 8 8 9 9 8 8 7 6 6 7 7 7 7 5 6 6 6
12 9 6 5 5 5 3 11 3 9 11 7 14 16 16 16 9 11 13 14 15 15 20 8 8 9 9 9 8 9 10 9 9 8 9 9 7 7 8 7 7 8 8 7 6 6 6 7 7
Wind_Direction
321 296 268 49 57 67 248 252 248 272 340 290 297 281 234 158 157 207 142 152 130 147 161 164 157 148 143 142 141 141 142 140 141 137 133 132 132 131 131 132 133 139 141 142 143 146 146 140 139
332 303 37 88 103 124 263 232 252 328 263 310 311 275 266 203 136 123 125 163 145 147 155 162 163 151 146 144 146 145 148 148 149 145 143 143 144 144 146 147 149 151 150 151 156 158 155 149 154
284 235 85 129 172 196 239 228 255 265 288 288 291 180 178 175 79 145 121 157 138 147 156 161 169 154 149 147 147 149 151 155 153 151 153 152 154 154 155 159 161 161 164 165 169 171 166 166 173
355 12 13 121 240 250 239 286 308 307 300 286 249 279 107 209 164 167 137 154 137 150 155 160 173 158 153 151 151 153 157 161 159 159 161 161 162 161 162 167 169 170 173 179 180 179 179 186 184
345 89 185 247 256 253 264 269 269 273 270 282 310 214 151 289 112 133 144 148 145 152 155 164 175 164 155 157 154 157 164 166 167 166 166 168 167 167 172 175 178 179 182 188 189 187 189 195 201
306 124 141 235 255 265 271 267 283 271 279 284 315 103 50 41 133 152 150 150 150 150 155 166 175 166 158 162 160 161 166 170 172 172 172 175 172 176 178 181 186 186 190 194 194 189 197 208 209
166 108 223 234 270 285 269 305 272 296 290 291 275 92 334 33 71 106 132 135 146 145 150 161 178 170 163 167 164 165 168 173 174 178 179 182 178 182 185 186 189 192 196 200 198 194 199 210 223
167 145 231 225 254 273 274 299 305 330 307 307 277 155 174 158 111 88 90 111 116 128 149 159 172 174 166 169 171 173 175 176 177 182 185 186 185 186 192 190 194 196 199 202 204 198 202 212 220
283 179 226 225 241 259 304 316 302 292 325 330 311 124 133 121 127 129 129 126 117 144 161 166 178 178 167 171 179 178 182 183 182 185 192 189 189 191 197 193 197 203 204 209 209 207 206 212 222
184 198 223 227 242 286 302 296 300 327 332 356 340 343 112 151 138 136 154 170 156 163 169 182 189 189 167 176 176 177 182 188 192 187 190 190 181 178 189 200 200 206 208 211 215 212 210 217 205
221 240 245 267 274 272 290 294 305 313 299 299 339 336 328 125 171 158 156 179 159 175 156 171 205 222 176 185 175 180 186 184 194 188 184 175 177 187 196 183 200 199 213 209 217 214 204 207 196
259 267 258 267 263 268 274 287 284 284 269 282 264 274 282 191 297 182 159 155 145 165 172 152 158 180 263 203 188 187 190 197 192 194 180 173 177 185 196 193 195 185 200 192 202 203 202 211 209
256 273 271 262 257 253 261 266 271 279 277 283 282 256 226 212 208 16 11 134 142 140 151 163 153 135 227 267 207 189 207 205 196 183 193 184 189 191 191 203 190 195 178 194 204 204 206 217 222
293 298 289 270 268 272 265 268 275 270 282 284 284 211 247 162 183 143 159 198 191 167 170 182 170 139 231 226 233 193 198 209 196 195 194 194 195 188 200 200 199 195 188 198 204 204 208 218 217
305 310 312 277 250 265 332 284 255 271 312 273 276 272 233 232 168 176 194 183 180 198 194 184 171 170 195 219 220 194 206 205 198 202 192 194 196 192 195 204 203 199 192 196 206 209 211 213 217
324 306 323 317 4 285 165 264 263 281 293 289 289 291 243 220 236 174 193 243 225 186 194 191 187 192 204 211 204 193 197 202 199 199 190 196 198 190 192 201 207 190 187 194 203 203 211 215 218
319 261 270 315 238 228 173 267 284 289 265 268 270 277 290 241 228 256 211 194 205 236 203 198 195 195 201 206 200 194 194 200 197 192 189 197 197 194 189 202 206 179 190 198 197 208 201 204 217
249 267 264 288 298 61 288 281 299 310 322 285 286 281 275 283 234 220 241 245 179 214 233 258 194 196 196 192 177 188 190 207 188 196 199 189 198 196 194 204 201 184 191 197 189 203 201 178 207
253 261 270 271 243 278 275 285 288 288 307 307 308 305 286 276 281 201 211 230 262 276 185 200 232 211 174 160 180 202 209 211 201 207 206 190 196 195 192 205 196 190 202 195 196 184 195 210 168
295 270 285 283 291 289 265 277 278 263 265 263 272 284 286 277 275 271 233 211 212 236 237 216 198 211 196 191 198 192 192 196 209 217 211 194 198 199 194 198 197 198 200 191 181 190 167 187 168
353 0 342 316 292 270 289 283 292 280 248 287 285 270 279 268 271 270 261 232 222 209 221 217 207 196 198 191 134 91 78 65 142 215 211 221 189 195 195 196 192 192 196 197 190 188 179 161 189
331 332 329 331 343 296 287 283 277 294 295 258 278 281 277 287 288 279 266 255 225 223 207 202 202 201 193 172 167 171 191 187 210 194 190 227 201 190 198 183 179 189 193 174 184 183 187 154 162
272 313 318 289 287 320 282 263 283 307 292 299 277 266 275 273 273 278 278 256 239 215 200 206 201 197 201 190 196 199 194 206 171 171 212 239 210 196 185 173 174 169 166 162 167 165 174 169 154
327 349 306 264 212 265 271 213 274 243 262 272 293 307 298 306 294 283 269 275 262 227 211 197 195 205 204 199 197 195 197 194 177 195 210 209 192 174 162 157 162 162 159 167 180 181 172 175 166
79 57 326 319 298 255 202 233 254 260 276 27 356 333 328 330 328 323 308 289 276 268 224 201 195 210 205 204 202 202 204 194 197 191 188 166 159 159 153 148 160 169 171 167 160 167 162 142 142
214 166 177 280 318 306 308 250 244 314 89 340 316 297 322 322 322 308 305 297 280 267 236 211 200 212 204 205 211 206 200 199 193 172 166 175 179 161 149 145 142 158 165 150 154 141 144 150 168
235 173 202 199 250 255 240 284 307 28 326 324 302 323 312 304 315 312 308 317 306 283 245 211 203 210 201 205 208 204 189 175 179 158 150 158 144 139 134 142 158 165 146 140 142 135 152 142 141
185 217 267 18 270 242 253 263 246 313 315 309 318 318 305 303 308 308 303 309 318 303 255 229 212 200 196 186 183 179 174 161 142 142 151 159 145 137 153 173 169 157 136 144 136 143 148 141 155
268 196 165 127 174 231 284 249 202 246 257 277 293 304 292 285 281 290 297 305 313 308 296 232 210 153 148 146 142 144 140 134 140 151 152 154 140 142 152 161 143 128 134 136 140 152 147 155 157
257 265 174 146 232 238 218 263 210 222 240 263 292 299 282 278 277 291 291 304 312 305 300 211 163 147 154 148 143 141 135 137 139 144 142 134 132 136 147 141 133 143 139 144 148 155 153 160 173